GW7286 Weather Reports


time (UTC)temp
C
wind
direction
speed
KPH
gust
KPH
rain 1hr
cm
rain 24hr
cm
rain mn
cm
humidity
%
barometer
mb
20260503004529 6 297 0.0 0.0 0.00 0.00 0.00 56 1014.2
20260503003040 8 309 0.0 0.0 0.00 0.00 0.00 45 1014.3
20260503001547 10 323 0.0 1.6 0.00 0.00 0.00 41 1014.4
20260503000027 10 56 1.6 3.2 0.00 0.00 0.00 32 1014.5
20260502234533 10 47 0.0 4.8 0.00 0.00 0.00 32 1014.6
20260502233031 10 357 1.6 3.2 0.00 0.00 0.00 33 1014.7
20260502231528 10 299 1.6 4.8 0.00 0.00 0.00 31 1014.9
20260502230033 9 32 1.6 6.4 0.00 0.00 0.00 31 1015.0
20260502224506 8 60 1.6 6.4 0.00 0.00 0.00 32 1015.2
20260502223024 8 316 1.6 9.7 0.00 0.00 0.00 33 1015.3
20260502221527 8 311 4.8 11.3 0.00 0.00 0.00 33 1015.5
20260502220033 8 312 3.2 11.3 0.00 0.00 0.00 34 1015.5
20260502214530 8 326 4.8 8.0 0.00 0.00 0.00 35 1015.6
20260502213010 8 41 3.2 12.9 0.00 0.00 0.00 32 1015.9
20260502211523 7 324 11.3 16.1 0.00 0.00 0.00 34 1016.0
20260502210027 7 330 8.0 14.5 0.00 0.00 0.00 34 1016.0
20260502204526 7 321 6.4 19.3 0.00 0.00 0.00 36 1016.1
20260502203027 7 259 8.0 14.5 0.00 0.00 0.00 36 1016.2
20260502201525 7 293 8.0 17.7 0.00 0.00 0.00 38 1016.3
20260502200024 7 309 9.7 19.3 0.00 0.00 0.00 37 1016.4
20260502194528 7 358 6.4 17.7 0.00 0.00 0.00 40 1016.7
20260502193026 7 343 8.0 19.3 0.00 0.00 0.00 40 1016.9
20260502191528 7 305 8.0 16.1 0.00 0.00 0.00 37 1016.9
20260502190025 7 309 8.0 14.5 0.00 0.00 0.00 39 1016.9
20260502184550 7 317 6.4 16.1 0.00 0.00 0.00 38 1017.0
20260502183026 7 307 8.0 17.7 0.00 0.00 0.00 36 1017.1
20260502181530 7 283 6.4 16.1 0.00 0.00 0.00 36 1017.2
20260502163032 6 8 8.0 16.1 0.00 0.00 0.00 46 1018.0
20260502161527 6 300 9.7 17.7 0.00 0.00 0.00 42 1018.2
20260502151525 5 290 4.8 14.5 0.00 0.00 0.00 51 1018.6
20260502123006 0 148 0.0 3.2 0.00 0.00 0.00 96 1019.0
20260502121511 -1 125 0.0 0.0 0.00 0.00 0.00 96 1018.9
20260502114525 -2 125 0.0 0.0 0.00 0.00 0.00 96 1018.9
20260502113028 -2 125 0.0 0.0 0.00 0.00 0.00 96 1018.7
20260502111526 -3 125 0.0 0.0 0.00 0.00 0.00 96 1018.7
20260502110010 -3 111 0.0 0.0 0.00 0.00 0.00 95 1018.6
20260502104536 -3 112 0.0 0.0 0.00 0.00 0.00 95 1018.5
20260502103028 -3 111 0.0 0.0 0.00 0.00 0.00 95 1018.7
20260502101528 -3 111 0.0 0.0 0.00 0.00 0.00 95 1018.7
20260502091528 -2 110 0.0 0.0 0.00 0.00 0.00 95 1018.3
20260502071526 -2 102 0.0 1.6 0.00 0.00 0.00 93 1018.0
20260502070032 -2 102 0.0 0.0 0.00 0.00 0.00 93 1018.0
20260502064528 -2 102 0.0 0.0 0.00 0.00 0.00 92 1018.1
20260502063030 -1 102 0.0 0.0 0.00 0.00 0.00 92 1018.2
20260502061529 -1 102 0.0 3.2 0.00 0.00 0.00 92 1018.0
20260502060028 -1 93 0.0 1.6 0.00 0.00 0.00 91 1018.1
20260502054525 -1 132 0.0 1.6 0.00 0.00 0.00 91 1018.2
20260502053003 -1 137 0.0 0.0 0.00 0.00 0.00 90 1018.1
20260502051520 0 127 0.0 0.0 0.00 0.00 0.00 89 1018.1
20260502050022 0 148 0.0 0.0 0.00 0.00 0.00 87 1018.0
20260502044527 1 190 0.0 0.0 0.00 0.00 0.00 85 1017.9
20260502043023 1 277 0.0 3.2 0.00 0.00 0.00 86 1018.0
20260502041505 1 281 1.6 3.2 0.00 0.00 0.00 85 1017.9
20260502040008 1 275 1.6 4.8 0.00 0.00 0.00 84 1017.9
20260502034528 2 274 0.0 4.8 0.00 0.00 0.00 84 1018.0
20260502033030 2 275 3.2 6.4 0.00 0.00 0.00 83 1018.1
20260502031526 2 301 1.6 6.4 0.00 0.00 0.00 82 1018.1
20260502030006 2 281 3.2 8.0 0.00 0.00 0.00 81 1018.1
20260502024528 2 281 4.8 8.0 0.00 0.00 0.00 80 1018.2
20260502023027 2 296 4.8 11.3 0.00 0.00 0.00 80 1018.2
20260502021526 2 284 3.2 8.0 0.00 0.00 0.00 79 1018.3
20260502020029 2 289 6.4 11.3 0.00 0.00 0.00 78 1018.3
20260502014519 2 309 4.8 11.3 0.00 0.00 0.00 77 1018.1
20260502013008 3 336 6.4 11.3 0.00 0.00 0.00 76 1018.1
20260502011524 3 305 4.8 9.7 0.00 0.00 0.00 76 1017.9
20260502010023 3 297 8.0 11.3 0.00 0.00 0.00 75 1017.9